Starlink 1992

operational
NORAD ID: 47632 Int'l Des: 2021-012 Owner: SPXS Country: US Constellation: starlink
LEOCIRCULARSTARLINK_TYPE

关于 Starlink 1992

正在加载描述...

实时位置

正在加载3D地球...

即将过境

高度历史

Altitude vs Time

uPlot chart will show altitude changes over time

两行轨道根数

1 47632U 21012N 25349.74660145 .00002711 00000-0 20079-3 0 9996
2 47632 53.0544 353.4528 0001238 93.3274 266.7857 15.06402932268646
Epoch: Dec 15, 2025 • Age: 17 hours

当前状态

高度 548.3 km
速度 7.59 km/s
星下点 -1.91°S, 73.28°W
发射日期 Feb 16, 2021
运行时间 4.8 years
类型 internet

技术详情

分类 Payload
质量 260.00 kg
干质量 248.00 kg
总质量 260.00 kg
长度 0.20 m
直径 2.80 m
跨度 9.00 m
形状 Box + pan
制造商 SPXS
平台类型 Starlink
阶段状态 In Orbit
所有者/国家 SPXS/US

大型星座

Loading constellations...